GW2021 Weather Reports


time (UTC)temp
C
wind
direction
speed
KPH
gust
KPH
rain 1hr
cm
rain 24hr
cm
rain mn
cm
humidity
%
barometer
mb
20260504070313 6 157 0.0 0.0 0.00 0.00 0.00 61 1014.5
20260504050612 7 157 0.0 0.0 0.00 0.00 0.00 57 1014.7
20260504045615 7 157 0.0 0.0 0.00 0.00 0.00 57 1014.8
20260504043614 7 157 0.0 0.0 0.00 0.00 0.00 56 1014.8
20260504042613 8 157 0.0 0.0 0.00 0.00 0.00 54 1014.8
20260504040612 8 157 0.0 0.0 0.00 0.00 0.00 52 1015.0
20260504035624 8 157 0.0 0.0 0.00 0.00 0.00 52 1014.7
20260504034622 8 157 0.0 0.0 0.00 0.00 0.00 52 1014.7
20260504033623 8 157 0.0 0.0 0.00 0.00 0.00 53 1014.7
20260504032624 8 157 0.0 0.0 0.00 0.00 0.00 53 1014.7
20260504031623 8 157 0.0 0.0 0.00 0.00 0.00 54 1014.6
20260504030624 8 157 0.0 0.0 0.00 0.00 0.00 53 1014.5
20260504025622 8 157 0.0 0.0 0.00 0.00 0.00 55 1014.5
20260504023623 8 157 0.0 0.0 0.00 0.00 0.00 54 1014.4
20260504022624 8 157 0.0 0.0 0.00 0.00 0.00 54 1014.5
20260504021621 8 157 0.0 0.0 0.00 0.00 0.00 55 1014.4
20260504020622 8 157 0.0 0.0 0.00 0.00 0.00 54 1014.4
20260504015622 8 157 0.0 0.0 0.00 0.00 0.00 54 1014.4
20260504013723 9 157 0.0 0.0 0.00 0.00 0.00 56 1014.3
20260504012723 9 157 0.0 0.0 0.00 0.00 0.00 55 1014.3
20260504011725 10 157 0.0 0.0 0.00 0.00 0.00 53 1014.2
20260504010722 10 157 0.0 0.0 0.00 0.00 0.00 52 1014.3
20260504005722 10 157 0.0 0.0 0.00 0.00 0.00 51 1014.2
20260504003823 11 157 0.0 0.0 0.00 0.00 0.00 50 1014.1
20260504002825 11 157 0.0 0.0 0.00 0.00 0.00 49 1013.9
20260504001922 11 157 0.0 0.0 0.00 0.00 0.00 47 1013.9
20260504000922 12 157 0.0 0.0 0.00 0.00 0.00 45 1013.8
20260503235923 12 157 0.0 0.0 0.00 0.00 0.00 42 1013.8
20260503235021 12 157 0.0 0.0 0.00 0.00 0.00 40 1013.7
20260503234023 13 157 0.0 0.0 0.00 0.00 0.00 39 1013.4
20260503233022 13 157 0.0 0.0 0.00 0.00 0.00 38 1013.4
20260503232022 13 157 0.0 0.0 0.00 0.00 0.00 37 1013.2
20260503231022 13 157 0.0 0.0 0.00 0.00 0.00 37 1013.3
20260503230022 13 157 0.0 0.0 0.00 0.00 0.00 36 1013.5
20260503225023 13 157 0.0 0.0 0.00 0.00 0.00 36 1013.5
20260503224022 14 157 0.0 0.0 0.00 0.00 0.00 35 1013.3
20260503223023 14 157 0.0 0.0 0.00 0.00 0.00 35 1013.4
20260503222024 14 157 0.0 0.0 0.00 0.00 0.00 35 1013.5
20260503221022 14 157 0.0 0.0 0.00 0.00 0.00 35 1013.4
20260503220023 14 157 0.0 0.0 0.00 0.00 0.00 35 1013.4
20260503215022 14 157 0.0 0.0 0.00 0.00 0.00 35 1013.5
20260503214023 14 157 0.0 0.0 0.00 0.00 0.00 34 1013.6
20260503213022 15 157 0.0 0.0 0.00 0.00 0.00 36 1013.5
20260503212023 15 157 0.0 0.0 0.00 0.00 0.00 35 1013.4
20260503211023 14 157 0.0 0.0 0.00 0.00 0.00 36 1013.4
20260503205122 14 157 0.0 0.0 0.00 0.00 0.00 35 1013.3
20260503204123 14 157 0.0 0.0 0.00 0.00 0.00 35 1013.4
20260503203122 14 157 0.0 0.0 0.00 0.00 0.00 35 1013.4
20260503202122 15 157 0.0 0.0 0.00 0.00 0.00 35 1013.7
20260503201124 15 157 0.0 0.0 0.00 0.00 0.00 36 1013.4
20260503200122 14 157 0.0 0.0 0.00 0.00 0.00 35 1013.8
20260503194124 14 157 0.0 0.0 0.00 0.00 0.00 35 1013.9
20260503192124 13 157 0.0 0.0 0.00 0.00 0.00 35 1014.1
20260503190222 13 157 0.0 0.0 0.00 0.00 0.00 36 1014.4
20260503185221 14 157 0.0 0.0 0.00 0.00 0.00 36 1014.5
20260503184223 13 157 0.0 0.0 0.00 0.00 0.00 36 1014.6
20260503183224 14 157 0.0 0.0 0.00 0.00 0.00 37 1015.0
20260503182224 14 157 0.0 0.0 0.00 0.00 0.00 39 1015.0
20260503181223 13 157 0.0 0.0 0.00 0.00 0.00 38 1015.0
20260503180223 13 157 0.0 0.0 0.00 0.00 0.00 39 1014.9
20260503175223 13 157 0.0 0.0 0.00 0.00 0.00 39 1015.2
20260503174223 13 157 0.0 0.0 0.00 0.00 0.00 39 1015.0
20260503173322 13 157 0.0 0.0 0.00 0.00 0.00 38 1015.1
20260503172324 13 157 0.0 0.0 0.00 0.00 0.00 37 1015.2
20260503171421 13 157 0.0 0.0 0.00 0.00 0.00 39 1015.3
20260503170423 12 157 0.0 0.0 0.00 0.00 0.00 39 1015.3
20260503150422 10 157 0.0 0.0 0.00 0.00 0.00 41 1016.2
20260503130722 8 157 0.0 0.0 0.00 0.00 0.00 46 1016.4
20260503100224 3 157 0.0 0.0 0.00 0.00 0.00 63 1014.2
20260503090421 3 157 0.0 0.0 0.00 0.00 0.00 63 1013.7
20260503080722 5 157 0.0 0.0 0.00 0.00 0.00 63 1013.6
20260503072823 6 157 0.0 0.0 0.00 0.00 0.00 64 1013.1
20260503071822 6 157 0.0 0.0 0.00 0.00 0.00 64 1013.1